Temp
53 50 48 46 43 42 40 39 40 39 39 38 38 37 37 35 35 35 33 32 31 31
51 48 46 43 41 39 38 38 38 37 36 36 36 36 36 34 33 32 31 30 30 32
48 46 42 40 38 37 37 36 36 35 34 34 34 34 34 32 31 30 30 31 31 31
41 40 39 37 36 34 34 35 34 34 33 33 32 32 30 30 30 30 30 31 31 30
38 37 35 33 33 33 33 34 33 33 33 31 31 30 30 31 31 31 30 30 30 29
33 33 32 33 33 33 32 33 32 32 30 29 29 30 31 32 31 30 30 30 29 28
33 33 33 33 32 32 32 31 30 30 29 29 30 31 31 31 30 29 29 29 29 28
33 33 33 32 32 31 30 29 29 28 30 31 32 32 31 31 30 29 28 29 29 28
33 33 31 31 30 29 28 28 30 31 31 31 33 36 35 32 30 30 29 27 27 27
31 29 29 28 28 27 28 31 30 31 31 31 33 36 35 33 30 29 28 28 28 28
29 28 28 27 26 27 28 28 29 30 31 31 33 35 34 32 29 28 27 27 27 26
28 27 27 26 26 27 28 29 29 30 30 30 31 35 34 31 28 28 27 27 26 25
28 28 27 27 27 28 29 29 29 28 28 28 29 34 33 31 29 26 25 25 25 26
28 28 28 28 28 28 27 26 25 25 25 26 27 30 32 31 27 25 23 22 21 22
MSLP
1007.66 1008.88 1010.40 1011.43 1012.81 1014.00 1015.22 1016.51 1017.76 1018.50 1019.32 1020.41 1021.23 1021.78 1022.72 1023.26 1024.60 1025.23 1025.82 1026.60 1027.40 1027.81
1007.50 1008.52 1010.13 1011.89 1013.20 1014.24 1015.64 1016.76 1017.94 1018.94 1019.68 1020.93 1021.36 1021.96 1023.13 1023.91 1024.86 1025.71 1026.61 1027.12 1027.79 1028.19
1007.38 1008.90 1010.36 1012.01 1013.38 1014.56 1015.63 1017.07 1017.68 1019.35 1020.29 1021.36 1021.95 1022.70 1023.23 1024.72 1025.64 1026.36 1027.23 1027.35 1027.95 1028.46
1008.11 1009.51 1010.76 1012.60 1013.94 1015.11 1016.37 1017.50 1018.28 1019.17 1020.87 1021.78 1022.79 1023.40 1024.27 1025.24 1026.24 1026.82 1027.20 1027.71 1028.27 1028.76
1009.19 1010.95 1011.94 1013.48 1014.92 1016.25 1017.09 1017.70 1019.43 1019.90 1021.01 1022.07 1023.50 1024.62 1025.33 1025.92 1026.55 1027.36 1027.72 1028.10 1028.52 1029.10
1010.44 1011.70 1013.26 1014.45 1015.59 1017.42 1018.51 1019.40 1019.31 1020.82 1022.21 1022.52 1023.90 1024.80 1025.40 1026.27 1027.32 1027.76 1028.12 1028.60 1028.76 1029.35
1011.19 1012.64 1013.95 1015.34 1016.57 1017.57 1019.48 1020.05 1021.18 1021.98 1022.87 1023.76 1024.12 1024.62 1025.41 1026.56 1027.60 1028.36 1028.82 1029.27 1029.39 1029.44
1012.25 1013.54 1014.64 1016.19 1017.55 1018.82 1019.92 1020.85 1021.78 1022.69 1023.43 1023.60 1024.82 1025.24 1025.73 1026.43 1027.39 1028.40 1029.13 1029.51 1029.68 1029.72
1013.18 1014.82 1015.56 1017.28 1018.77 1019.94 1021.08 1022.14 1022.65 1023.28 1023.56 1024.22 1025.40 1025.89 1026.16 1026.90 1027.68 1028.57 1029.07 1029.46 1030.08 1030.22
1014.16 1015.75 1017.34 1018.75 1019.89 1021.13 1022.25 1022.97 1023.89 1023.41 1023.47 1024.91 1026.01 1026.38 1026.69 1027.46 1028.18 1028.86 1029.42 1029.83 1030.27 1030.59
1015.65 1017.04 1018.72 1019.60 1021.37 1022.72 1023.20 1024.23 1024.12 1024.09 1025.00 1025.92 1026.39 1026.62 1027.25 1028.09 1028.97 1029.35 1029.83 1030.00 1030.54 1031.01
1017.62 1018.60 1019.92 1021.02 1022.70 1023.66 1024.12 1024.55 1024.94 1025.55 1025.97 1026.73 1027.04 1027.44 1027.91 1028.37 1028.91 1029.47 1029.96 1030.34 1030.88 1031.16
1019.60 1020.17 1021.13 1022.39 1023.61 1024.20 1024.73 1025.36 1025.94 1026.36 1026.73 1027.69 1027.72 1027.66 1028.29 1028.44 1028.82 1029.91 1030.65 1030.80 1031.17 1030.98
1021.26 1021.95 1022.68 1023.41 1024.12 1024.82 1025.56 1025.98 1026.47 1027.15 1028.11 1028.48 1028.48 1028.20 1028.26 1028.84 1029.67 1030.63 1030.96 1031.19 1031.53 1031.48
Wind_Speed
16 11 11 13 12 10 10 10 12 13 14 14 12 13 12 11 9 10 9 10 6 4
14 16 14 14 12 10 12 13 15 14 16 14 14 15 12 10 10 10 8 7 6 5
11 14 16 15 15 15 16 16 19 16 15 13 13 12 13 10 10 10 6 6 7 5
13 14 16 15 15 15 17 16 17 18 15 14 13 12 13 11 9 9 9 7 8 7
16 15 16 16 15 15 16 17 15 15 16 15 13 11 10 10 8 9 9 8 9 7
17 18 18 17 19 16 15 14 17 17 15 15 12 10 10 9 8 8 8 7 8 7
19 20 19 19 18 19 15 17 15 14 13 11 11 11 11 11 10 9 7 7 6 7
20 20 21 21 19 17 16 15 14 13 10 12 10 8 12 11 10 9 8 7 7 6
21 20 21 20 18 17 16 13 11 13 13 12 7 18 18 12 9 8 8 7 5 5
21 21 18 18 18 16 12 12 12 13 14 12 10 18 18 16 7 7 6 6 6 4
21 21 18 18 15 13 11 10 10 13 12 11 10 18 17 15 7 7 6 6 4 4
18 19 17 17 13 11 12 11 12 11 11 10 9 16 15 11 7 7 5 5 4 3
15 16 16 15 12 11 12 12 10 11 10 7 8 14 13 9 5 6 4 4 3 5
14 14 13 13 11 11 11 11 11 11 7 6 6 9 13 10 5 3 3 3 1 2
Wind_Direction
163 158 156 158 153 141 132 122 118 111 106 105 104 95 93 93 94 97 82 83 87 88
161 150 148 138 129 123 116 119 112 110 107 105 103 106 105 100 97 88 98 96 95 91
143 137 129 128 126 123 121 121 115 110 106 105 102 102 99 92 93 109 114 110 105 91
119 117 116 116 118 120 117 118 116 116 112 108 100 96 99 113 123 112 112 104 104 89
107 104 108 108 109 112 115 116 113 109 108 105 100 110 115 117 114 122 113 107 101 94
107 107 108 106 109 103 108 101 106 107 108 113 122 122 114 110 110 101 99 102 110 115
112 113 112 110 105 107 106 107 103 105 112 120 127 115 111 108 102 96 94 97 101 100
111 113 111 109 110 110 111 109 115 115 124 110 111 114 117 117 113 114 111 104 102 104
112 110 107 108 108 106 107 111 126 122 111 105 108 124 121 116 117 120 121 119 108 91
108 104 101 103 106 107 116 118 117 109 104 105 115 124 120 116 114 115 104 106 109 118
103 104 107 105 100 102 100 104 101 95 99 110 118 119 120 112 97 93 87 92 112 125
104 104 105 102 107 108 107 103 100 101 102 103 108 121 120 112 105 105 113 116 127 134
97 99 100 107 110 110 104 103 101 93 82 91 111 119 121 110 107 112 119 99 77 138
91 98 101 103 103 106 105 100 94 92 84 89 93 107 105 108 99 131 127 116 90 11